2023/03/11 00:00:00,40.4, 5.7
2023/03/11 00:10:00,40.4, 5.7
2023/03/11 00:20:00,40.5, 5.6
2023/03/11 00:30:00,40.5, 5.6
2023/03/11 00:40:00,40.5, 5.6
2023/03/11 00:50:00,40.5, 6.0
2023/03/11 01:00:00,40.5, 5.9
2023/03/11 01:10:00,40.5, 5.7
2023/03/11 01:20:00,40.5, 5.7
2023/03/11 01:30:00,40.4, 6.0
2023/03/11 01:40:00,40.5, 6.0
2023/03/11 01:50:00,40.5, 5.9
2023/03/11 02:00:00,40.5, 6.0
2023/03/11 02:10:00,40.5, 6.0
2023/03/11 02:20:00,40.5, 6.0
2023/03/11 02:30:00,40.5, 5.7
2023/03/11 02:40:00,40.5, 5.8
2023/03/11 02:50:00,40.6, 5.2
2023/03/11 03:00:00,40.6, 5.6
2023/03/11 03:10:00,40.5, 5.8
2023/03/11 03:20:00,40.5, 5.5
2023/03/11 03:30:00,40.6, 5.4
2023/03/11 03:40:00,40.6, 5.3
2023/03/11 03:50:00,40.6, 5.6
2023/03/11 04:00:00,40.5, 5.3
2023/03/11 04:10:00,40.3, 5.8
2023/03/11 04:20:00,40.4, 5.7
2023/03/11 04:30:00,40.4, 5.4
2023/03/11 04:40:00,40.4, 5.7
2023/03/11 04:50:00,40.3, 5.7
2023/03/11 05:00:00,40.3, 5.5
2023/03/11 05:10:00,40.3, 5.4
2023/03/11 05:20:00,40.3, 5.5
2023/03/11 05:30:00,40.3, 5.6
2023/03/11 05:40:00,40.3, 6.0
2023/03/11 05:50:00,40.3, 5.7
2023/03/11 06:00:00,40.3, 5.9
2023/03/11 06:10:00,40.2, 5.9
2023/03/11 06:20:00,40.2, 5.7
2023/03/11 06:30:00,40.3, 5.7
2023/03/11 06:40:00,40.4, 5.8
2023/03/11 06:50:00,40.4, 5.9
2023/03/11 07:00:00,40.4, 6.0
2023/03/11 07:10:00,40.5, 6.2
2023/03/11 07:20:00,40.4, 6.3
2023/03/11 07:30:00,40.3, 6.2
2023/03/11 07:40:00,40.3, 6.0
2023/03/11 07:50:00,40.3, 6.3
2023/03/11 08:00:00,40.4, 6.3
2023/03/11 08:10:00,40.4, 6.3
2023/03/11 08:20:00,40.5, 6.6
2023/03/11 08:30:00,40.6, 6.6
2023/03/11 08:40:00,40.5, 7.2
2023/03/11 08:50:00,40.5, 7.8
2023/03/11 09:00:00,40.7, 8.9
2023/03/11 09:10:00,40.8, 9.8
2023/03/11 09:20:00,40.8,12.1
2023/03/11 09:30:00,41.1,13.1
2023/03/11 09:40:00,41.5,13.4
2023/03/11 09:50:00,41.7,13.8
2023/03/11 10:00:00,41.3,14.0
2023/03/11 10:10:00,41.4,15.7
2023/03/11 10:20:00,41.2,16.7
2023/03/11 10:30:00,40.8,16.7
2023/03/11 10:40:00,41.0,16.8
2023/03/11 10:50:00,40.9,16.8
2023/03/11 11:00:00,41.1,17.2
2023/03/11 11:10:00,41.1,16.6
2023/03/11 11:20:00,40.9,18.1
2023/03/11 11:30:00,40.8,16.8
2023/03/11 11:40:00,40.5,17.9
2023/03/11 11:50:00,39.7,17.8
2023/03/11 12:00:00,39.7,17.0
2023/03/11 12:10:00,39.7,18.7
2023/03/11 12:20:00,39.5,18.4
2023/03/11 12:30:00,40.2,17.6
2023/03/11 12:40:00,40.1,19.1
2023/03/11 12:50:00,39.8,20.1
2023/03/11 13:00:00,39.6,20.9
2023/03/11 13:10:00,40.0,22.2
2023/03/11 13:20:00,39.9,22.3
2023/03/11 13:30:00,40.3,20.8
2023/03/11 13:40:00,40.7,18.4
2023/03/11 13:50:00,40.5,20.2
2023/03/11 14:00:00,39.9,22.0
2023/03/11 14:10:00,39.8,20.6
2023/03/11 14:20:00,39.6,22.2
2023/03/11 14:30:00,39.4,22.3
2023/03/11 14:40:00,39.2,21.6
2023/03/11 14:50:00,37.9,20.2
2023/03/11 15:00:00,38.2,20.6
2023/03/11 15:10:00,38.2,19.8
2023/03/11 15:20:00,37.2,16.9
2023/03/11 15:30:00,36.9,17.6
2023/03/11 15:40:00,37.4,18.8
2023/03/11 15:50:00,37.2,20.8
2023/03/11 16:00:00,36.7,18.7
2023/03/11 16:10:00,36.8,19.9
2023/03/11 16:20:00,36.4,18.7
2023/03/11 16:30:00,36.1,20.9
2023/03/11 16:40:00,35.6,20.0
2023/03/11 16:50:00,35.2,17.3
2023/03/11 17:00:00,35.1,16.0
2023/03/11 17:10:00,35.0,14.5
2023/03/11 17:20:00,34.9,12.3
2023/03/11 17:30:00,34.5,10.8
2023/03/11 17:40:00,34.2, 9.6
2023/03/11 17:50:00,34.1, 9.2
2023/03/11 18:00:00,34.2, 7.8
2023/03/11 18:10:00,34.3, 7.1
2023/03/11 18:20:00,34.1, 7.1
2023/03/11 18:30:00,34.0, 7.2
2023/03/11 18:40:00,33.8, 6.6
2023/03/11 18:50:00,33.7, 6.8
2023/03/11 19:00:00,33.6, 6.6
2023/03/11 19:10:00,33.5, 6.2
2023/03/11 19:20:00,33.4, 6.4
2023/03/11 19:30:00,33.2, 6.5
2023/03/11 19:40:00,33.2, 6.7
2023/03/11 19:50:00,33.1, 6.7
2023/03/11 20:00:00,33.1, 7.0
2023/03/11 20:10:00,33.0, 6.7
2023/03/11 20:20:00,33.0, 6.9
2023/03/11 20:30:00,33.1, 7.4
2023/03/11 20:40:00,33.1, 7.5
2023/03/11 20:50:00,33.0, 7.7
2023/03/11 21:00:00,33.0, 7.4
2023/03/11 21:10:00,32.9, 7.1
2023/03/11 21:20:00,33.0, 7.6
2023/03/11 21:30:00,33.0, 7.1
2023/03/11 21:40:00,32.9, 7.8
2023/03/11 21:50:00,32.9, 7.0
2023/03/11 22:00:00,33.0, 6.8
2023/03/11 22:10:00,33.2, 6.9
2023/03/11 22:20:00,33.2, 7.7
2023/03/11 22:30:00,33.0, 7.4
2023/03/11 22:40:00,33.1, 7.4
2023/03/11 22:50:00,33.1, 7.4
2023/03/11 23:00:00,33.0, 7.4
2023/03/11 23:10:00,33.1, 6.7
2023/03/11 23:20:00,33.2, 6.9
2023/03/11 23:30:00,33.3, 7.3
2023/03/11 23:40:00,33.2, 7.1
2023/03/11 23:50:00,33.3, 6.4
